GW0309 Weather Reports


Display with metric or nautical units.
time (UTC)temp
F
wind
direction
speed
MPH
gust
MPH
rain 1hr
in
rain 24hr
in
rain mn
in
humidity
%
barometer
mb
20260508185554 0 154 3.0 3.0 0.00 0.00 0.00 1057.5
20260508185052 0 69 3.0 5.0 0.00 0.00 0.00 1057.6
20260508184548 0 173 1.0 2.0 0.00 0.00 0.00 1057.7
20260508184045 0 153 2.0 3.0 0.00 0.00 0.00 1057.6
20260508183542 0 175 2.0 3.0 0.00 0.00 0.00 1057.6
20260508183038 0 132 1.0 2.0 0.00 0.00 0.00 1057.9
20260508182534 0 150 1.0 3.0 0.00 0.00 0.00 1057.9
20260508182031 0 127 1.0 1.0 0.00 0.00 0.00 1058.0
20260508181526 0 226 2.0 3.0 0.00 0.00 0.00 1057.7
20260508181024 0 152 1.0 2.0 0.00 0.00 0.00 1057.9
20260508180520 0 145 2.0 2.0 0.00 0.00 0.00 1058.2
20260508180017 0 150 2.0 3.0 0.00 0.00 0.00 1058.3
20260508175513 0 303 6.0 8.0 0.00 0.00 0.00 1058.5
20260508175011 0 130 1.0 5.0 0.00 0.00 0.00 1058.3
20260508174508 0 153 0.0 3.0 0.00 0.00 0.00 1058.5
20260508174005 0 314 2.0 6.0 0.00 0.00 0.00 1058.5
20260508173502 0 335 3.0 5.0 0.00 0.00 0.00 1058.7
20260508172958 0 123 2.0 3.0 0.00 0.00 0.00 1058.7
20260508172455 0 263 2.0 3.0 0.00 0.00 0.00 1058.6
20260508171951 0 186 2.0 5.0 0.00 0.00 0.00 1058.5
20260508171449 0 148 2.0 2.0 0.00 0.00 0.00 1058.9
20260508170945 0 197 2.0 6.0 0.00 0.00 0.00 1058.8
20260508170442 0 176 2.0 2.0 0.00 0.00 0.00 1058.8
20260508165939 0 262 7.0 10.0 0.00 0.00 0.00 1059.0
20260508165437 0 239 4.0 7.0 0.00 0.00 0.00 1059.2
20260508164932 0 125 0.0 5.0 0.00 0.00 0.00 1059.3
20260508164430 0 132 1.0 3.0 0.00 0.00 0.00 1059.0
20260508163927 0 119 1.0 2.0 0.00 0.00 0.00 1059.0
20260508163425 0 170 2.0 3.0 0.00 0.00 0.00 1059.2
20260508162920 0 274 4.0 9.0 0.00 0.00 0.00 1059.5
20260508162418 0 153 1.0 8.0 0.00 0.00 0.00 1059.4
20260508161914 0 257 3.0 5.0 0.00 0.00 0.00 1059.5
20260508161412 0 126 0.0 1.0 0.00 0.00 0.00 1059.4
20260508160909 0 159 1.0 2.0 0.00 0.00 0.00 1059.8
20260508160408 0 129 1.0 3.0 0.00 0.00 0.00 1059.6
20260508155903 0 119 1.0 7.0 0.00 0.00 0.00 1059.7
20260508155401 0 125 1.0 5.0 0.00 0.00 0.00 1059.7
20260508154857 0 202 1.0 5.0 0.00 0.00 0.00 1059.8
20260508154355 0 260 3.0 5.0 0.00 0.00 0.00 1059.9
20260508153851 0 278 2.0 5.0 0.00 0.00 0.00 1060.0
20260508153349 0 203 4.0 9.0 0.00 0.00 0.00 1060.0
20260508152844 0 129 2.0 6.0 0.00 0.00 0.00 1060.0
20260508152341 0 154 1.0 5.0 0.00 0.00 0.00 1060.1
20260508151838 0 126 1.0 3.0 0.00 0.00 0.00 1060.1
20260508151335 0 182 1.0 2.0 0.00 0.00 0.00 1060.1
20260508150831 0 179 2.0 5.0 0.00 0.00 0.00 1059.9
20260508150328 0 128 1.0 2.0 0.00 0.00 0.00 1059.9
20260508145824 0 129 1.0 6.0 0.00 0.00 0.00 1060.2
20260508145320 0 154 2.0 3.0 0.00 0.00 0.00 1060.2
20260508144817 0 264 2.0 6.0 0.00 0.00 0.00 1060.2
20260508144315 0 167 1.0 3.0 0.00 0.00 0.00 1060.2
20260508143813 0 149 3.0 5.0 0.00 0.00 0.00 1060.3
20260508143309 0 185 1.0 3.0 0.00 0.00 0.00 1060.4
20260508142806 0 211 5.0 10.0 0.00 0.00 0.00 1060.6
20260508142306 0 304 2.0 5.0 0.00 0.00 0.00 1060.2
20260508141759 0 144 2.0 5.0 0.00 0.00 0.00 1060.3
20260508141256 0 144 1.0 2.0 0.00 0.00 0.00 1060.3
20260508140754 0 284 4.0 7.0 0.00 0.00 0.00 1060.4
20260508140251 0 195 1.0 2.0 0.00 0.00 0.00 1060.1
20260508135746 0 133 1.0 1.0 0.00 0.00 0.00 1059.9
20260508135243 0 142 1.0 2.0 0.00 0.00 0.00 1060.2
20260508134738 0 170 1.0 5.0 0.00 0.00 0.00 1060.1
20260508134236 0 154 1.0 2.0 0.00 0.00 0.00 1060.2
20260508133732 0 165 2.0 2.0 0.00 0.00 0.00 1060.4
20260508133230 0 162 2.0 5.0 0.00 0.00 0.00 1060.0
20260508132728 0 140 1.0 3.0 0.00 0.00 0.00 1060.3
20260508132225 0 145 1.0 2.0 0.00 0.00 0.00 1060.0
20260508131720 0 170 4.0 10.0 0.00 0.00 0.00 1060.0
20260508131217 0 176 3.0 3.0 0.00 0.00 0.00 1060.0
20260508130714 0 150 2.0 2.0 0.00 0.00 0.00 1060.1
20260508130211 0 134 1.0 7.0 0.00 0.00 0.00 1060.2
20260508125706 0 138 2.0 3.0 0.00 0.00 0.00 1060.0
20260508125203 0 119 2.0 3.0 0.00 0.00 0.00 1060.2
20260508124701 0 132 1.0 2.0 0.00 0.00 0.00 1060.2
20260508124158 0 172 1.0 2.0 0.00 0.00 0.00 1059.9
20260508123657 0 133 0.0 2.0 0.00 0.00 0.00 1059.8
20260508123154 0 146 1.0 2.0 0.00 0.00 0.00 1059.8
20260508122650 0 144 1.0 1.0 0.00 0.00 0.00 1059.9
20260508122147 0 151 1.0 2.0 0.00 0.00 0.00 1059.6
20260508121645 0 163 1.0 2.0 0.00 0.00 0.00 1059.7
20260508121143 0 193 1.0 7.0 0.00 0.00 0.00 1059.7
20260508120640 0 196 4.0 6.0 0.00 0.00 0.00 1059.9
20260508120138 0 160 2.0 3.0 0.00 0.00 0.00 1059.9
20260508115636 0 131 3.0 3.0 0.00 0.00 0.00 1059.8
20260508115132 0 145 2.0 3.0 0.00 0.00 0.00 1059.7
20260508114629 0 146 3.0 5.0 0.00 0.00 0.00 1059.7
20260508114125 0 128 4.0 6.0 0.00 0.00 0.00 1059.8
20260508113623 0 164 2.0 3.0 0.00 0.00 0.00 1060.0
20260508113121 0 148 2.0 3.0 0.00 0.00 0.00 1059.8
20260508112617 0 147 2.0 2.0 0.00 0.00 0.00 1059.6
20260508112114 0 164 1.0 3.0 0.00 0.00 0.00 1059.7
20260508111610 0 165 1.0 2.0 0.00 0.00 0.00 1059.6
20260508111108 0 159 1.0 3.0 0.00 0.00 0.00 1059.7
20260508110606 0 146 1.0 2.0 0.00 0.00 0.00 1059.6
20260508110101 0 157 2.0 2.0 0.00 0.00 0.00 1059.6
20260508105556 0 144 1.0 2.0 0.00 0.00 0.00 1059.7
20260508105054 0 185 3.0 3.0 0.00 0.00 0.00 1059.5
20260508104552 0 146 2.0 2.0 0.00 0.00 0.00 1059.6
20260508104048 0 173 2.0 2.0 0.00 0.00 0.00 1059.6
20260508103545 0 151 1.0 2.0 0.00 0.00 0.00 1059.5
20260508103042 0 134 1.0 2.0 0.00 0.00 0.00 1059.5
20260508102540 0 162 1.0 7.0 0.00 0.00 0.00 1059.6
20260508102038 0 139 2.0 2.0 0.00 0.00 0.00 1059.6
20260508101535 0 173 1.0 2.0 0.00 0.00 0.00 1059.5
20260508101032 0 167 1.0 3.0 0.00 0.00 0.00 1059.7
20260508100530 0 178 3.0 6.0 0.00 0.00 0.00 1059.7
20260508100026 0 181 3.0 3.0 0.00 0.00 0.00 1059.6
20260508095524 0 146 1.0 5.0 0.00 0.00 0.00 1059.5
20260508095020 0 154 1.0 5.0 0.00 0.00 0.00 1059.7
20260508094518 0 148 1.0 2.0 0.00 0.00 0.00 1059.9
20260508094014 0 137 1.0 2.0 0.00 0.00 0.00 1059.8
20260508093511 0 155 1.0 2.0 0.00 0.00 0.00 1059.9
20260508093009 0 170 2.0 3.0 0.00 0.00 0.00 1059.9
20260508092506 0 144 1.0 1.0 0.00 0.00 0.00 1060.1
20260508092006 0 161 2.0 2.0 0.00 0.00 0.00 1059.7
20260508091501 0 149 1.0 3.0 0.00 0.00 0.00 1059.9
20260508090959 0 146 0.0 1.0 0.00 0.00 0.00 1059.8
20260508090457 0 156 2.0 2.0 0.00 0.00 0.00 1059.7
20260508085953 0 146 1.0 1.0 0.00 0.00 0.00 1059.8
20260508085449 0 143 0.0 3.0 0.00 0.00 0.00 1059.9
20260508084946 0 168 1.0 2.0 0.00 0.00 0.00 1060.0
20260508084443 0 148 2.0 2.0 0.00 0.00 0.00 1059.7
20260508083941 0 168 1.0 6.0 0.00 0.00 0.00 1060.0
20260508083438 0 151 1.0 3.0 0.00 0.00 0.00 1060.0
20260508082933 0 157 2.0 6.0 0.00 0.00 0.00 1060.1
20260508082430 0 173 2.0 3.0 0.00 0.00 0.00 1060.1
20260508081928 0 152 2.0 3.0 0.00 0.00 0.00 1060.2
20260508081425 0 132 4.0 6.0 0.00 0.00 0.00 1060.0
20260508080921 0 194 3.0 3.0 0.00 0.00 0.00 1060.0
20260508080419 0 160 2.0 6.0 0.00 0.00 0.00 1060.1
20260508075915 0 134 2.0 3.0 0.00 0.00 0.00 1060.1
20260508075413 0 164 2.0 2.0 0.00 0.00 0.00 1060.0
20260508074910 0 155 1.0 2.0 0.00 0.00 0.00 1060.3
20260508074408 0 137 2.0 6.0 0.00 0.00 0.00 1060.1
20260508073904 0 154 3.0 5.0 0.00 0.00 0.00 1060.2
20260508073402 0 174 3.0 6.0 0.00 0.00 0.00 1060.2
20260508072859 0 176 3.0 6.0 0.00 0.00 0.00 1060.2
20260508072355 0 162 1.0 5.0 0.00 0.00 0.00 1060.4
20260508071852 0 159 3.0 3.0 0.00 0.00 0.00 1060.2
20260508071350 0 143 1.0 5.0 0.00 0.00 0.00 1060.4
20260508070848 0 157 2.0 3.0 0.00 0.00 0.00 1060.6
20260508070345 0 153 3.0 5.0 0.00 0.00 0.00 1060.7
20260508065842 0 141 1.0 2.0 0.00 0.00 0.00 1060.7
20260508065340 0 165 2.0 2.0 0.00 0.00 0.00 1060.9
20260508064838 0 160 1.0 2.0 0.00 0.00 0.00 1060.9
20260508064336 0 162 3.0 3.0 0.00 0.00 0.00 1060.9
20260508063833 0 156 3.0 3.0 0.00 0.00 0.00 1060.8
20260508063331 0 147 1.0 2.0 0.00 0.00 0.00 1061.1
20260508062828 0 162 2.0 3.0 0.00 0.00 0.00 1061.0
20260508062325 0 147 1.0 1.0 0.00 0.00 0.00 1060.9
20260508061822 0 138 0.0 1.0 0.00 0.00 0.00 1061.1
20260508061319 0 135 0.0 1.0 0.00 0.00 0.00 1061.2
20260508060816 0 136 0.0 1.0 0.00 0.00 0.00 1061.4
20260508060314 0 147 1.0 1.0 0.00 0.00 0.00 1061.3
20260508055809 0 137 0.0 2.0 0.00 0.00 0.00 1061.3
20260508055307 0 135 0.0 1.0 0.00 0.00 0.00 1061.0
20260508054803 0 133 0.0 1.0 0.00 0.00 0.00 1061.2
20260508054301 0 145 1.0 1.0 0.00 0.00 0.00 1061.3
20260508053757 0 131 0.0 1.0 0.00 0.00 0.00 1061.4
20260508053255 0 135 0.0 2.0 0.00 0.00 0.00 1061.2
20260508052752 0 145 1.0 1.0 0.00 0.00 0.00 1061.3
20260508052249 0 157 2.0 3.0 0.00 0.00 0.00 1061.2
20260508051745 0 147 1.0 3.0 0.00 0.00 0.00 1061.1
20260508051240 0 152 2.0 3.0 0.00 0.00 0.00 1061.2
20260508050737 0 145 1.0 3.0 0.00 0.00 0.00 1061.3
20260508050235 0 140 1.0 3.0 0.00 0.00 0.00 1061.2
20260508045730 0 159 3.0 5.0 0.00 0.00 0.00 1061.3
20260508045228 0 157 2.0 5.0 0.00 0.00 0.00 1061.4
20260508044725 0 145 1.0 3.0 0.00 0.00 0.00 1061.3
20260508044216 0 156 3.0 3.0 0.00 0.00 0.00 1061.5
20260508043712 0 154 1.0 2.0 0.00 0.00 0.00 1061.7
20260508043210 0 142 1.0 3.0 0.00 0.00 0.00 1061.7
20260508042706 0 138 0.0 2.0 0.00 0.00 0.00 1061.8
20260508042204 0 144 1.0 2.0 0.00 0.00 0.00 1061.8
20260508041659 0 154 1.0 2.0 0.00 0.00 0.00 1061.7
20260508041157 0 142 2.0 2.0 0.00 0.00 0.00 1062.0
20260508040653 0 138 0.0 1.0 0.00 0.00 0.00 1062.1
20260508040151 0 148 1.0 1.0 0.00 0.00 0.00 1062.1
20260508035648 0 136 0.0 1.0 0.00 0.00 0.00 1062.2
20260508035145 0 134 0.0 1.0 0.00 0.00 0.00 1062.0
20260508034642 0 144 1.0 1.0 0.00 0.00 0.00 1062.3
20260508034139 0 152 1.0 2.0 0.00 0.00 0.00 1062.0
20260508033636 0 133 0.0 0.0 0.00 0.00 0.00 1062.0
20260508033135 0 139 0.0 1.0 0.00 0.00 0.00 1062.1
20260508032630 0 131 0.0 0.0 0.00 0.00 0.00 1062.2
20260508032128 0 133 0.0 0.0 0.00 0.00 0.00 1062.0
20260508031625 0 143 0.0 1.0 0.00 0.00 0.00 1062.1
20260508031121 0 135 0.0 1.0 0.00 0.00 0.00 1061.9
20260508030618 0 132 0.0 0.0 0.00 0.00 0.00 1061.8
20260508030116 0 134 0.0 0.0 0.00 0.00 0.00 1061.8
20260508025612 0 139 0.0 0.0 0.00 0.00 0.00 1061.8
20260508025109 0 132 0.0 0.0 0.00 0.00 0.00 1061.9
20260508024605 0 130 0.0 0.0 0.00 0.00 0.00 1061.9
20260508024102 0 134 0.0 0.0 0.00 0.00 0.00 1061.6
20260508023558 0 134 0.0 0.0 0.00 0.00 0.00 1061.7
20260508023056 0 135 0.0 0.0 0.00 0.00 0.00 1061.5
20260508022551 0 130 0.0 0.0 0.00 0.00 0.00 1061.5
20260508022049 0 137 0.0 0.0 0.00 0.00 0.00 1061.3
20260508021544 0 145 1.0 1.0 0.00 0.00 0.00 1061.4
20260508021041 0 151 1.0 2.0 0.00 0.00 0.00 1061.4
20260508020538 0 138 0.0 1.0 0.00 0.00 0.00 1061.3
20260508020036 0 132 0.0 0.0 0.00 0.00 0.00 1061.3
20260508015533 0 132 0.0 0.0 0.00 0.00 0.00 1061.2
20260508015030 0 129 0.0 0.0 0.00 0.00 0.00 1061.2
20260508014526 0 130 0.0 0.0 0.00 0.00 0.00 1061.1
20260508014023 0 131 0.0 0.0 0.00 0.00 0.00 1061.2
20260508013519 0 131 0.0 0.0 0.00 0.00 0.00 1061.1
20260508013016 0 131 0.0 0.0 0.00 0.00 0.00 1061.0
20260508012514 0 131 0.0 0.0 0.00 0.00 0.00 1061.1
20260508012011 0 134 0.0 0.0 0.00 0.00 0.00 1061.0
20260508011509 0 130 0.0 0.0 0.00 0.00 0.00 1060.9
20260508011006 0 132 0.0 1.0 0.00 0.00 0.00 1060.8
20260508010502 0 137 0.0 1.0 0.00 0.00 0.00 1060.8
20260508005959 0 134 0.0 1.0 0.00 0.00 0.00 1060.8
20260508005456 0 129 0.0 1.0 0.00 0.00 0.00 1060.7
20260508004953 0 141 1.0 1.0 0.00 0.00 0.00 1060.7
20260508004449 0 155 1.0 2.0 0.00 0.00 0.00 1060.4
20260508003946 0 152 0.0 1.0 0.00 0.00 0.00 1060.7
20260508003443 0 131 0.0 1.0 0.00 0.00 0.00 1060.7
20260508002940 0 233 1.0 2.0 0.00 0.00 0.00 1060.7
20260508002436 0 127 0.0 2.0 0.00 0.00 0.00 1060.7
20260508001932 0 122 1.0 1.0 0.00 0.00 0.00 1060.3
20260508001429 0 147 0.0 1.0 0.00 0.00 0.00 1060.6
20260508000925 0 146 1.0 5.0 0.00 0.00 0.00 1060.6
20260508000421 0 133 0.0 2.0 0.00 0.00 0.00 1060.4
20260507235919 0 249 2.0 3.0 0.00 0.00 0.00 1060.4
20260507235416 0 118 2.0 5.0 0.00 0.00 0.00 1060.3
20260507234912 0 146 2.0 6.0 0.00 0.00 0.00 1060.6
20260507234403 0 260 3.0 5.0 0.00 0.00 0.00 1060.8
20260507233900 0 211 2.0 8.0 0.00 0.00 0.00 1060.6
20260507233357 0 138 1.0 2.0 0.00 0.00 0.00 1060.6
20260507232855 0 133 1.0 1.0 0.00 0.00 0.00 1060.8
20260507232351 0 254 2.0 5.0 0.00 0.00 0.00 1060.7
20260507231849 0 247 2.0 9.0 0.00 0.00 0.00 1060.8
20260507231345 0 226 3.0 7.0 0.00 0.00 0.00 1060.9
20260507230842 0 145 2.0 5.0 0.00 0.00 0.00 1061.0
20260507230339 0 148 1.0 5.0 0.00 0.00 0.00 1060.9
20260507225839 0 234 3.0 3.0 0.00 0.00 0.00 1061.1
20260507225335 0 224 2.0 3.0 0.00 0.00 0.00 1060.9
20260507224831 0 136 1.0 7.0 0.00 0.00 0.00 1061.2
20260507224328 0 162 2.0 3.0 0.00 0.00 0.00 1061.0
20260507223824 0 146 5.0 9.0 0.00 0.00 0.00 1061.2
20260507223321 0 221 1.0 5.0 0.00 0.00 0.00 1061.1
20260507222818 0 124 2.0 2.0 0.00 0.00 0.00 1061.1
20260507222314 0 127 1.0 3.0 0.00 0.00 0.00 1061.4
20260507221811 0 228 3.0 5.0 0.00 0.00 0.00 1061.4
20260507221308 0 203 2.0 11.0 0.00 0.00 0.00 1061.4
20260507220804 0 162 2.0 3.0 0.00 0.00 0.00 1061.5
20260507220303 0 159 2.0 2.0 0.00 0.00 0.00 1061.4
20260507215758 0 178 4.0 9.0 0.00 0.00 0.00 1061.3
20260507215256 0 265 4.0 5.0 0.00 0.00 0.00 1061.2
20260507214752 0 251 2.0 3.0 0.00 0.00 0.00 1061.6
20260507214250 0 173 1.0 6.0 0.00 0.00 0.00 1061.2
20260507213745 0 306 4.0 9.0 0.00 0.00 0.00 1061.4
20260507213242 0 249 7.0 9.0 0.00 0.00 0.00 1061.7
20260507212739 0 182 1.0 7.0 0.00 0.00 0.00 1061.4
20260507212235 0 329 4.0 6.0 0.00 0.00 0.00 1061.6
20260507211732 0 198 2.0 6.0 0.00 0.00 0.00 1061.6
20260507211228 0 188 2.0 5.0 0.00 0.00 0.00 1061.6
20260507210725 0 239 2.0 8.0 0.00 0.00 0.00 1061.7
20260507210222 0 301 4.0 7.0 0.00 0.00 0.00 1061.8
20260507205718 0 189 2.0 3.0 0.00 0.00 0.00 1061.7
20260507205215 0 158 1.0 5.0 0.00 0.00 0.00 1062.1
20260507204711 0 169 0.0 5.0 0.00 0.00 0.00 1061.8
20260507204210 0 133 1.0 2.0 0.00 0.00 0.00 1062.0
20260507203707 0 181 1.0 5.0 0.00 0.00 0.00 1062.2
20260507203204 0 149 1.0 3.0 0.00 0.00 0.00 1062.1
20260507202700 0 227 5.0 7.0 0.00 0.00 0.00 1062.2
20260507202156 0 211 4.0 9.0 0.00 0.00 0.00 1062.5
20260507201651 0 159 3.0 5.0 0.00 0.00 0.00 1062.4
20260507201149 0 150 1.0 3.0 0.00 0.00 0.00 1062.5
20260507200645 0 243 6.0 14.0 0.00 0.00 0.00 1062.4
20260507200141 0 278 4.0 7.0 0.00 0.00 0.00 1062.6
20260507195638 0 195 3.0 6.0 0.00 0.00 0.00 1062.5
20260507195135 0 188 4.0 9.0 0.00 0.00 0.00 1062.6
20260507194632 0 142 0.0 3.0 0.00 0.00 0.00 1062.7
20260507194127 0 297 2.0 3.0 0.00 0.00 0.00 1063.0
20260507193624 0 161 2.0 7.0 0.00 0.00 0.00 1062.8
20260507193121 0 268 5.0 10.0 0.00 0.00 0.00 1062.9
20260507192617 0 246 5.0 8.0 0.00 0.00 0.00 1062.8
20260507192114 0 203 7.0 9.0 0.00 0.00 0.00 1063.3
20260507191610 0 108 1.0 3.0 0.00 0.00 0.00 1063.1
20260507191107 0 206 2.0 7.0 0.00 0.00 0.00 1062.9
20260507190604 0 255 5.0 6.0 0.00 0.00 0.00 1063.0
20260507185601 0 269 3.0 5.0 0.00 0.00 0.00 1063.1